JZA459 CYVR-CYYD

Flight info

Callsign JZA459
Flight time 1h 24m
Altitude 16000
Route FASBO V330 NOTEX/N0324F240 V330 TRENA DCT YYD
Aircraft DH8D/M-SDE2E3FGRY/H

Departure

Time 2026-05-07 13:55
Airport Vancouver International Airport (CYVR)

Arrival

Time 2026-05-07 15:19
Airport Smithers Airport (CYYD)
Time Latitude Longitude Altitude Speed Heading
2026-05-07 12:59 49.19477 -123.18483 10 ft 0 kts 127°
2026-05-07 13:47 49.19476 -123.18481 10 ft 0 kts 136°
2026-05-07 13:47 49.19472 -123.18480 10 ft 0 kts 175°
2026-05-07 13:48 49.19468 -123.18484 10 ft 1 kts 229°
2026-05-07 13:48 49.19462 -123.18507 10 ft 3 kts 251°
2026-05-07 13:48 49.19448 -123.18535 10 ft 4 kts 208°
2026-05-07 13:48 49.19408 -123.18555 10 ft 7 kts 220°
2026-05-07 13:49 49.19403 -123.18645 10 ft 9 kts 271°
2026-05-07 13:49 49.19394 -123.18741 10 ft 8 kts 258°
2026-05-07 13:49 49.19383 -123.18829 10 ft 8 kts 259°
2026-05-07 13:49 49.19374 -123.18910 10 ft 7 kts 270°
2026-05-07 13:50 49.19402 -123.18979 10 ft 8 kts 321°
2026-05-07 13:50 49.19463 -123.19053 10 ft 12 kts 321°
2026-05-07 13:50 49.19531 -123.19132 10 ft 11 kts 321°
2026-05-07 13:50 49.19588 -123.19205 10 ft 10 kts 320°
2026-05-07 13:51 49.19650 -123.19272 10 ft 11 kts 321°
2026-05-07 13:51 49.19718 -123.19358 10 ft 14 kts 322°
2026-05-07 13:51 49.19803 -123.19459 10 ft 16 kts 321°
2026-05-07 13:51 49.19889 -123.19562 10 ft 14 kts 321°
2026-05-07 13:52 49.19968 -123.19657 10 ft 13 kts 322°
2026-05-07 13:52 49.20039 -123.19742 10 ft 12 kts 322°
2026-05-07 13:52 49.20103 -123.19820 10 ft 11 kts 321°
2026-05-07 13:52 49.20161 -123.19888 10 ft 9 kts 322°
2026-05-07 13:53 49.20213 -123.19951 10 ft 8 kts 322°
2026-05-07 13:53 49.20262 -123.20002 10 ft 8 kts 338°
2026-05-07 13:53 49.20317 -123.20010 10 ft 7 kts
2026-05-07 13:53 49.20366 -123.19997 10 ft 6 kts 10°
2026-05-07 13:54 49.20410 -123.19985 10 ft 6 kts 11°
2026-05-07 13:54 49.20453 -123.19973 10 ft 6 kts 11°
2026-05-07 13:54 49.20498 -123.19932 10 ft 14 kts 69°
2026-05-07 13:54 49.20472 -123.19684 10 ft 36 kts 101°
2026-05-07 13:55 49.20381 -123.18885 10 ft 114 kts 99°
2026-05-07 13:55 49.20219 -123.17441 188 ft 145 kts 99°
2026-05-07 13:55 49.20043 -123.15902 635 ft 156 kts 100°
2026-05-07 13:55 49.19839 -123.14236 1190 ft 164 kts 101°
2026-05-07 13:56 49.19626 -123.12484 1766 ft 170 kts 99°
2026-05-07 13:56 49.19418 -123.10704 2266 ft 176 kts 98°
2026-05-07 13:56 49.19529 -123.08804 2645 ft 185 kts 64°
2026-05-07 13:56 49.20421 -123.07409 3068 ft 191 kts 25°
2026-05-07 13:57 49.21679 -123.06797 3611 ft 190 kts 16°
2026-05-07 13:57 49.22964 -123.06230 4117 ft 192 kts 16°
2026-05-07 13:57 49.24239 -123.05673 4639 ft 193 kts 16°
2026-05-07 13:57 49.25533 -123.05110 5163 ft 194 kts 16°
2026-05-07 13:58 49.26850 -123.04633 5677 ft 195 kts
2026-05-07 13:58 49.28147 -123.05114 6142 ft 198 kts 334°
2026-05-07 13:58 49.29388 -123.06094 6665 ft 200 kts 329°
2026-05-07 13:58 49.30253 -123.07729 7080 ft 206 kts 292°
2026-05-07 13:59 49.30685 -123.09834 7606 ft 208 kts 289°
2026-05-07 13:59 49.31129 -123.11959 8123 ft 209 kts 290°
2026-05-07 13:59 49.31590 -123.14071 8636 ft 210 kts 291°
2026-05-07 13:59 49.32068 -123.16185 9133 ft 211 kts 291°
2026-05-07 14:00 49.32567 -123.18330 9656 ft 212 kts 292°
2026-05-07 14:00 49.33074 -123.20467 10162 ft 213 kts 292°
2026-05-07 14:00 49.33587 -123.22606 10648 ft 215 kts 292°
2026-05-07 14:00 49.34106 -123.24747 11125 ft 216 kts 292°
2026-05-07 14:01 49.34638 -123.26923 11643 ft 216 kts 292°
2026-05-07 14:01 49.35162 -123.29062 12121 ft 217 kts 293°
2026-05-07 14:01 49.35698 -123.31240 12602 ft 218 kts 293°
2026-05-07 14:01 49.36231 -123.33405 13045 ft 219 kts 293°
2026-05-07 14:02 49.36771 -123.35594 13456 ft 221 kts 293°
2026-05-07 14:02 49.37427 -123.37723 13867 ft 219 kts 311°
2026-05-07 14:02 49.38619 -123.39065 14237 ft 216 kts 332°
2026-05-07 14:02 49.39973 -123.40130 14656 ft 216 kts 333°
2026-05-07 14:03 49.41306 -123.41177 15052 ft 217 kts 333°
2026-05-07 14:03 49.42653 -123.42234 15429 ft 218 kts 333°
2026-05-07 14:03 49.44004 -123.43296 15768 ft 220 kts 333°
2026-05-07 14:03 49.45399 -123.44395 15911 ft 232 kts 333°
2026-05-07 14:04 49.46896 -123.45578 15960 ft 247 kts 332°
2026-05-07 14:04 49.48402 -123.46769 16493 ft 235 kts 332°
2026-05-07 14:04 49.49784 -123.47862 17207 ft 220 kts 332°
2026-05-07 14:04 49.51156 -123.48947 17489 ft 222 kts 332°
2026-05-07 14:05 49.52515 -123.50023 17829 ft 220 kts 332°
2026-05-07 14:05 49.53886 -123.51109 18122 ft 221 kts 332°
2026-05-07 14:05 49.55262 -123.52199 18429 ft 221 kts 332°
2026-05-07 14:05 49.56626 -123.53280 18719 ft 222 kts 332°
2026-05-07 14:06 49.58004 -123.54374 19002 ft 223 kts 332°
2026-05-07 14:06 49.59383 -123.55469 19316 ft 222 kts 331°
2026-05-07 14:06 49.60756 -123.56561 19552 ft 224 kts 331°
2026-05-07 14:06 49.62137 -123.57660 19831 ft 224 kts 331°
2026-05-07 14:07 49.63521 -123.58762 20057 ft 225 kts 331°
2026-05-07 14:07 49.64922 -123.59877 20333 ft 224 kts 330°
2026-05-07 14:07 49.66310 -123.60983 20595 ft 224 kts 330°
2026-05-07 14:07 49.67699 -123.62092 20800 ft 226 kts 330°
2026-05-07 14:08 49.69101 -123.63210 21048 ft 226 kts 330°
2026-05-07 14:08 49.70501 -123.64329 21226 ft 228 kts 330°
2026-05-07 14:08 49.71901 -123.65448 21457 ft 227 kts 330°
2026-05-07 14:08 49.73316 -123.66579 21667 ft 227 kts 329°
2026-05-07 14:09 49.74725 -123.67706 21901 ft 225 kts 329°
2026-05-07 14:09 49.76115 -123.68817 22155 ft 223 kts 329°
2026-05-07 14:09 49.77487 -123.69916 22375 ft 222 kts 329°
2026-05-07 14:09 49.78857 -123.71014 22537 ft 222 kts 328°
2026-05-07 14:10 49.80226 -123.72112 22709 ft 222 kts 328°
2026-05-07 14:10 49.81612 -123.73225 22872 ft 222 kts 328°
2026-05-07 14:10 49.82977 -123.74322 22978 ft 224 kts 328°
2026-05-07 14:10 49.84361 -123.75434 23127 ft 223 kts 328°
2026-05-07 14:11 49.85745 -123.76547 23270 ft 223 kts 328°
2026-05-07 14:11 49.87102 -123.77637 23512 ft 218 kts 328°
2026-05-07 14:11 49.88457 -123.78726 23682 ft 216 kts 328°
2026-05-07 14:11 49.89800 -123.79809 23763 ft 218 kts 328°
2026-05-07 14:12 49.91130 -123.80881 23872 ft 218 kts 328°
2026-05-07 14:12 49.92495 -123.81982 23988 ft 218 kts 328°
2026-05-07 14:12 49.93848 -123.83075 24059 ft 219 kts 328°
2026-05-07 14:12 49.95209 -123.84175 24092 ft 222 kts 328°
2026-05-07 14:13 49.96592 -123.85294 24100 ft 226 kts 328°
2026-05-07 14:13 49.98011 -123.86444 24105 ft 231 kts 328°
2026-05-07 14:13 49.99441 -123.87605 24110 ft 234 kts 328°
2026-05-07 14:13 50.00919 -123.88804 24113 ft 238 kts 328°
2026-05-07 14:14 50.02390 -123.89999 24117 ft 242 kts 328°
2026-05-07 14:14 50.03909 -123.91233 24119 ft 246 kts 328°
2026-05-07 14:14 50.05454 -123.92490 24119 ft 250 kts 328°
2026-05-07 14:14 50.07002 -123.93752 24124 ft 256 kts 328°
2026-05-07 14:15 50.08609 -123.95060 24125 ft 261 kts 328°
2026-05-07 14:15 50.10233 -123.96384 24126 ft 266 kts 328°
2026-05-07 14:15 50.11893 -123.97737 24130 ft 270 kts 328°
2026-05-07 14:15 50.13590 -123.99122 24136 ft 274 kts 328°
2026-05-07 14:16 50.15300 -124.00519 24135 ft 279 kts 328°
2026-05-07 14:16 50.17009 -124.01915 24133 ft 283 kts 328°
2026-05-07 14:16 50.18778 -124.03362 24131 ft 286 kts 328°
2026-05-07 14:16 50.20538 -124.04801 24127 ft 289 kts 328°
2026-05-07 14:17 50.22321 -124.06261 24116 ft 292 kts 328°
2026-05-07 14:17 50.24128 -124.07742 24114 ft 294 kts 328°
2026-05-07 14:17 50.25961 -124.09245 24113 ft 296 kts 328°
2026-05-07 14:17 50.27775 -124.10735 24111 ft 298 kts 328°
2026-05-07 14:18 50.29629 -124.12257 24113 ft 299 kts 328°
2026-05-07 14:18 50.31482 -124.13781 24114 ft 300 kts 328°
2026-05-07 14:18 50.33319 -124.15292 24108 ft 301 kts 328°
2026-05-07 14:18 50.35181 -124.16826 24111 ft 302 kts 328°
2026-05-07 14:19 50.37038 -124.18356 24104 ft 303 kts 328°
2026-05-07 14:19 50.38916 -124.19904 24105 ft 303 kts 328°
2026-05-07 14:19 50.40776 -124.21430 24106 ft 303 kts 328°
2026-05-07 14:19 50.42653 -124.22970 24112 ft 303 kts 328°
2026-05-07 14:20 50.44579 -124.24355 24113 ft 305 kts 334°
2026-05-07 14:20 50.46563 -124.25531 24112 ft 306 kts 335°
2026-05-07 14:20 50.48559 -124.26698 24114 ft 306 kts 335°
2026-05-07 14:20 50.50546 -124.27863 24115 ft 306 kts 335°
2026-05-07 14:21 50.52539 -124.29033 24115 ft 306 kts 334°
2026-05-07 14:21 50.54561 -124.30225 24115 ft 306 kts 335°
2026-05-07 14:21 50.56555 -124.31403 24116 ft 307 kts 334°
2026-05-07 14:21 50.58555 -124.32587 24120 ft 306 kts 334°
2026-05-07 14:22 50.60542 -124.33765 24115 ft 307 kts 334°
2026-05-07 14:22 50.62565 -124.34966 24117 ft 306 kts 335°
2026-05-07 14:22 50.64537 -124.36139 24115 ft 306 kts 334°
2026-05-07 14:22 50.66552 -124.37338 24119 ft 306 kts 334°
2026-05-07 14:23 50.68544 -124.38525 24117 ft 306 kts 334°
2026-05-07 14:23 50.70556 -124.39726 24120 ft 306 kts 334°
2026-05-07 14:23 50.72534 -124.40910 24119 ft 305 kts 334°
2026-05-07 14:23 50.74525 -124.42114 24120 ft 305 kts 334°
2026-05-07 14:24 50.76493 -124.43305 24121 ft 305 kts 334°
2026-05-07 14:24 50.78472 -124.44499 24117 ft 305 kts 334°
2026-05-07 14:24 50.80441 -124.45687 24115 ft 305 kts 334°
2026-05-07 14:24 50.82439 -124.46891 24121 ft 305 kts 334°
2026-05-07 14:25 50.84419 -124.48083 24122 ft 304 kts 334°
2026-05-07 14:25 50.86379 -124.49264 24125 ft 304 kts 334°
2026-05-07 14:25 50.88387 -124.50474 24120 ft 304 kts 334°
2026-05-07 14:25 50.90355 -124.51661 24116 ft 304 kts 334°
2026-05-07 14:26 50.92309 -124.52840 24111 ft 304 kts 334°
2026-05-07 14:26 50.94292 -124.54037 24116 ft 304 kts 334°
2026-05-07 14:26 50.96257 -124.55225 24117 ft 304 kts 334°
2026-05-07 14:26 50.98253 -124.56432 24115 ft 304 kts 334°
2026-05-07 14:27 51.00220 -124.57622 24121 ft 304 kts 334°
2026-05-07 14:27 51.02178 -124.58807 24125 ft 303 kts 334°
2026-05-07 14:27 51.04162 -124.60009 24121 ft 303 kts 334°
2026-05-07 14:27 51.06134 -124.61205 24123 ft 303 kts 334°
2026-05-07 14:28 51.08079 -124.62386 24120 ft 302 kts 334°
2026-05-07 14:28 51.10054 -124.63587 24117 ft 301 kts 334°
2026-05-07 14:28 51.12009 -124.64776 24120 ft 301 kts 333°
2026-05-07 14:28 51.13991 -124.65983 24127 ft 301 kts 333°
2026-05-07 14:29 51.15947 -124.67175 24122 ft 301 kts 333°
2026-05-07 14:29 51.17918 -124.68378 24123 ft 302 kts 333°
2026-05-07 14:29 51.19879 -124.69576 24123 ft 302 kts 333°
2026-05-07 14:29 51.21830 -124.70768 24118 ft 303 kts 333°
2026-05-07 14:30 51.23819 -124.71984 24116 ft 303 kts 333°
2026-05-07 14:30 51.25769 -124.73179 24121 ft 303 kts 333°
2026-05-07 14:30 51.27753 -124.74393 24120 ft 303 kts 333°
2026-05-07 14:30 51.29711 -124.75594 24114 ft 303 kts 333°
2026-05-07 14:31 51.31673 -124.76799 24119 ft 303 kts 333°
2026-05-07 14:31 51.33647 -124.78011 24123 ft 303 kts 333°
2026-05-07 14:31 51.35623 -124.79227 24117 ft 303 kts 333°
2026-05-07 14:31 51.37586 -124.80436 24119 ft 303 kts 333°
2026-05-07 14:32 51.39550 -124.81645 24120 ft 303 kts 333°
2026-05-07 14:32 51.41502 -124.82849 24121 ft 303 kts 333°
2026-05-07 14:32 51.43486 -124.84074 24119 ft 303 kts 333°
2026-05-07 14:32 51.45446 -124.85284 24111 ft 303 kts 333°
2026-05-07 14:33 51.47401 -124.86494 24121 ft 302 kts 333°
2026-05-07 14:33 51.49376 -124.87717 24127 ft 302 kts 332°
2026-05-07 14:33 51.51338 -124.88932 24127 ft 302 kts 333°
2026-05-07 14:33 51.53289 -124.90141 24129 ft 302 kts 333°
2026-05-07 14:34 51.55252 -124.91360 24123 ft 302 kts 333°
2026-05-07 14:34 51.57223 -124.92585 24123 ft 302 kts 333°
2026-05-07 14:34 51.59181 -124.93803 24128 ft 302 kts 332°
2026-05-07 14:34 51.61137 -124.95020 24134 ft 302 kts 333°
2026-05-07 14:35 51.63086 -124.96234 24141 ft 302 kts 333°
2026-05-07 14:35 51.65034 -124.97449 24142 ft 302 kts 332°
2026-05-07 14:35 51.66995 -124.98673 24148 ft 302 kts 332°
2026-05-07 14:35 51.68947 -124.99892 24156 ft 301 kts 333°
2026-05-07 14:36 51.70905 -125.01116 24165 ft 301 kts 332°
2026-05-07 14:36 51.72846 -125.02331 24153 ft 301 kts 332°
2026-05-07 14:36 51.74798 -125.03554 24148 ft 302 kts 333°
2026-05-07 14:36 51.76767 -125.04790 24145 ft 301 kts 333°
2026-05-07 14:37 51.78722 -125.06016 24141 ft 301 kts 333°
2026-05-07 14:37 51.82606 -125.08458 24129 ft 302 kts 332°
2026-05-07 14:37 51.84563 -125.09690 24121 ft 302 kts 332°
2026-05-07 14:38 51.86533 -125.10931 24128 ft 302 kts 332°
2026-05-07 14:38 51.88470 -125.12152 24121 ft 302 kts 332°
2026-05-07 14:38 51.90453 -125.13404 24120 ft 301 kts 332°
2026-05-07 14:38 51.92397 -125.14632 24126 ft 301 kts 332°
2026-05-07 14:39 51.94342 -125.15862 24123 ft 301 kts 332°
2026-05-07 14:39 51.96295 -125.17098 24121 ft 300 kts 332°
2026-05-07 14:39 51.98233 -125.18325 24117 ft 300 kts 332°
2026-05-07 14:39 52.00191 -125.19567 24120 ft 300 kts 332°
2026-05-07 14:40 52.02119 -125.20792 24129 ft 299 kts 332°
2026-05-07 14:40 52.04076 -125.22034 24126 ft 299 kts 332°
2026-05-07 14:40 52.05991 -125.23252 24122 ft 299 kts 332°
2026-05-07 14:40 52.07949 -125.24499 24128 ft 298 kts 332°
2026-05-07 14:41 52.09877 -125.25726 24123 ft 298 kts 332°
2026-05-07 14:41 52.11805 -125.26956 24120 ft 297 kts 332°
2026-05-07 14:41 52.13741 -125.28192 24116 ft 297 kts 332°
2026-05-07 14:41 52.15654 -125.29414 24112 ft 297 kts 332°
2026-05-07 14:42 52.17567 -125.30638 24121 ft 298 kts 332°
2026-05-07 14:42 52.19525 -125.31892 24116 ft 298 kts 332°
2026-05-07 14:42 52.21450 -125.33125 24120 ft 298 kts 332°
2026-05-07 14:42 52.23369 -125.34356 24120 ft 299 kts 332°
2026-05-07 14:43 52.25325 -125.35612 24116 ft 299 kts 332°
2026-05-07 14:43 52.27252 -125.36849 24118 ft 298 kts 332°
2026-05-07 14:43 52.29193 -125.38097 24120 ft 298 kts 332°
2026-05-07 14:43 52.31137 -125.39349 24115 ft 298 kts 332°
2026-05-07 14:44 52.33067 -125.40592 24120 ft 298 kts 332°
2026-05-07 14:44 52.35009 -125.41844 24117 ft 298 kts 332°
2026-05-07 14:44 52.36930 -125.43085 24119 ft 298 kts 332°
2026-05-07 14:44 52.38855 -125.44328 24120 ft 298 kts 332°
2026-05-07 14:45 52.40805 -125.45589 24117 ft 298 kts 332°
2026-05-07 14:45 52.42745 -125.46845 24112 ft 298 kts 332°
2026-05-07 14:45 52.44654 -125.48082 24113 ft 298 kts 332°
2026-05-07 14:45 52.46595 -125.49341 24113 ft 298 kts 332°
2026-05-07 14:46 52.48537 -125.50602 24116 ft 297 kts 332°
2026-05-07 14:46 52.50446 -125.51842 24113 ft 298 kts 332°
2026-05-07 14:46 52.52398 -125.53112 24108 ft 298 kts 332°
2026-05-07 14:46 52.54304 -125.54353 24109 ft 298 kts 332°
2026-05-07 14:47 52.56248 -125.55620 24116 ft 297 kts 332°
2026-05-07 14:47 52.58157 -125.56865 24113 ft 297 kts 332°
2026-05-07 14:47 52.60095 -125.58131 24114 ft 297 kts 332°
2026-05-07 14:47 52.62031 -125.59395 24116 ft 297 kts 332°
2026-05-07 14:48 52.63945 -125.60648 24118 ft 297 kts 332°
2026-05-07 14:48 52.65876 -125.61912 24123 ft 297 kts 332°
2026-05-07 14:48 52.67774 -125.63156 24117 ft 296 kts 332°
2026-05-07 14:48 52.69711 -125.64426 24117 ft 296 kts 332°
2026-05-07 14:49 52.71622 -125.65681 24121 ft 296 kts 331°
2026-05-07 14:49 52.73560 -125.66954 24128 ft 296 kts 331°
2026-05-07 14:49 52.75484 -125.68220 24129 ft 297 kts 331°
2026-05-07 14:49 52.77403 -125.69484 24128 ft 297 kts 331°
2026-05-07 14:50 52.79327 -125.70753 24127 ft 297 kts 331°
2026-05-07 14:50 52.81236 -125.72013 24133 ft 297 kts 331°
2026-05-07 14:50 52.83176 -125.73294 24130 ft 298 kts 331°
2026-05-07 14:50 52.85095 -125.74564 24128 ft 298 kts 331°
2026-05-07 14:51 52.87041 -125.75851 24118 ft 299 kts 331°
2026-05-07 14:51 52.88986 -125.77140 24111 ft 299 kts 331°
2026-05-07 14:51 52.90906 -125.78413 24110 ft 299 kts 331°
2026-05-07 14:51 52.92850 -125.79702 24108 ft 299 kts 331°
2026-05-07 14:52 52.94791 -125.80992 24099 ft 299 kts 331°
2026-05-07 14:52 52.96733 -125.82282 24095 ft 299 kts 331°
2026-05-07 14:52 52.98667 -125.83569 24095 ft 298 kts 331°
2026-05-07 14:52 53.00577 -125.84843 24092 ft 298 kts 331°
2026-05-07 14:53 53.02509 -125.86131 24081 ft 298 kts 331°
2026-05-07 14:53 53.04451 -125.87426 24082 ft 298 kts 331°
2026-05-07 14:53 53.06392 -125.88723 24081 ft 298 kts 331°
2026-05-07 14:53 53.08313 -125.90007 24086 ft 297 kts 331°
2026-05-07 14:54 53.10236 -125.91294 24080 ft 297 kts 331°
2026-05-07 14:54 53.12145 -125.92574 24085 ft 297 kts 332°
2026-05-07 14:54 53.14069 -125.93864 24084 ft 298 kts 331°
2026-05-07 14:54 53.16000 -125.95161 24075 ft 298 kts 331°
2026-05-07 14:55 53.17903 -125.96439 24077 ft 298 kts 331°
2026-05-07 14:55 53.19831 -125.97736 24080 ft 299 kts 331°
2026-05-07 14:55 53.21782 -125.99051 24071 ft 299 kts 331°
2026-05-07 14:55 53.23699 -126.00342 24071 ft 299 kts 331°
2026-05-07 14:56 53.25637 -126.01650 24078 ft 299 kts 331°
2026-05-07 14:56 53.27567 -126.02953 24076 ft 299 kts 331°
2026-05-07 14:56 53.29492 -126.04253 24072 ft 299 kts 331°
2026-05-07 14:56 53.31408 -126.05550 24075 ft 299 kts 331°
2026-05-07 14:57 53.33324 -126.06847 24076 ft 299 kts 331°
2026-05-07 14:57 53.35257 -126.08157 24073 ft 299 kts 331°
2026-05-07 14:57 53.37196 -126.09473 24078 ft 299 kts 331°
2026-05-07 14:57 53.39115 -126.10778 24072 ft 299 kts 331°
2026-05-07 14:58 53.41042 -126.12088 24069 ft 299 kts 331°
2026-05-07 14:58 53.42978 -126.13405 24069 ft 299 kts 331°
2026-05-07 14:58 53.44897 -126.14712 24070 ft 299 kts 331°
2026-05-07 14:58 53.46835 -126.16033 24078 ft 299 kts 331°
2026-05-07 14:59 53.48769 -126.17353 24075 ft 299 kts 331°
2026-05-07 14:59 53.50692 -126.18668 24073 ft 299 kts 331°
2026-05-07 14:59 53.52632 -126.19994 24077 ft 299 kts 331°
2026-05-07 14:59 53.54563 -126.21316 24075 ft 299 kts 331°
2026-05-07 15:00 53.56480 -126.22629 24071 ft 299 kts 331°
2026-05-07 15:00 53.58387 -126.23937 24071 ft 298 kts 331°
2026-05-07 15:00 53.60325 -126.25268 24066 ft 298 kts 331°
2026-05-07 15:00 53.62242 -126.26585 24064 ft 298 kts 330°
2026-05-07 15:01 53.64175 -126.27916 24063 ft 298 kts 330°
2026-05-07 15:01 53.66096 -126.29238 24061 ft 298 kts 331°
2026-05-07 15:01 53.68016 -126.30562 24064 ft 298 kts 330°
2026-05-07 15:01 53.69946 -126.31894 24068 ft 298 kts 331°
2026-05-07 15:02 53.71864 -126.33219 24068 ft 298 kts 331°
2026-05-07 15:02 53.73768 -126.34534 24072 ft 298 kts 330°
2026-05-07 15:02 53.75699 -126.35871 24072 ft 298 kts 330°
2026-05-07 15:02 53.77611 -126.37196 24064 ft 298 kts 331°
2026-05-07 15:03 53.79525 -126.38524 24064 ft 298 kts 331°
2026-05-07 15:03 53.81458 -126.39864 24066 ft 298 kts 330°
2026-05-07 15:03 53.83383 -126.41202 24070 ft 298 kts 330°
2026-05-07 15:03 53.85308 -126.42542 23956 ft 294 kts 330°
2026-05-07 15:04 53.87158 -126.43827 23825 ft 286 kts 330°
2026-05-07 15:04 53.88996 -126.45106 23687 ft 278 kts 330°
2026-05-07 15:04 53.90757 -126.46333 23569 ft 272 kts 330°
2026-05-07 15:04 53.92502 -126.47555 23273 ft 272 kts 330°
2026-05-07 15:05 53.94246 -126.48779 22917 ft 274 kts 330°
2026-05-07 15:05 53.96022 -126.50027 22524 ft 277 kts 330°
2026-05-07 15:05 53.97810 -126.51284 22113 ft 278 kts 330°
2026-05-07 15:05 53.99589 -126.52532 21706 ft 277 kts 330°
2026-05-07 15:06 54.01339 -126.53760 21314 ft 275 kts 331°
2026-05-07 15:06 54.03112 -126.55006 20908 ft 274 kts 331°
2026-05-07 15:06 54.04879 -126.56248 20500 ft 274 kts 331°
2026-05-07 15:06 54.06641 -126.57489 20093 ft 273 kts 331°
2026-05-07 15:07 54.08384 -126.58717 19690 ft 273 kts 331°
2026-05-07 15:07 54.10130 -126.59949 19281 ft 273 kts 331°
2026-05-07 15:07 54.11907 -126.61202 18862 ft 272 kts 332°
2026-05-07 15:07 54.13666 -126.62445 18449 ft 272 kts 332°
2026-05-07 15:08 54.15397 -126.63668 18047 ft 272 kts 332°
2026-05-07 15:08 54.17152 -126.64910 17645 ft 272 kts 332°
2026-05-07 15:08 54.18894 -126.66144 17243 ft 272 kts 332°
2026-05-07 15:08 54.20657 -126.67394 16838 ft 272 kts 332°
2026-05-07 15:09 54.22389 -126.68623 16441 ft 272 kts 333°
2026-05-07 15:09 54.24151 -126.69874 16036 ft 273 kts 333°
2026-05-07 15:09 54.25914 -126.71127 15635 ft 274 kts 333°
2026-05-07 15:09 54.27655 -126.72365 15234 ft 275 kts 333°
2026-05-07 15:10 54.29447 -126.73641 14824 ft 276 kts 333°
2026-05-07 15:10 54.31208 -126.74896 14415 ft 277 kts 334°
2026-05-07 15:10 54.32989 -126.76166 14005 ft 278 kts 334°
2026-05-07 15:10 54.34776 -126.77442 13591 ft 279 kts 334°
2026-05-07 15:11 54.36592 -126.78739 13170 ft 279 kts 334°
2026-05-07 15:11 54.38368 -126.80009 12756 ft 280 kts 335°
2026-05-07 15:11 54.40190 -126.81314 12226 ft 283 kts 335°
2026-05-07 15:11 54.42016 -126.82622 11767 ft 284 kts 335°
2026-05-07 15:12 54.43841 -126.83931 11334 ft 283 kts 335°
2026-05-07 15:12 54.45581 -126.85468 10851 ft 281 kts 321°
2026-05-07 15:12 54.46941 -126.87833 10426 ft 278 kts 310°
2026-05-07 15:12 54.48212 -126.90319 9968 ft 278 kts 310°
2026-05-07 15:13 54.49479 -126.92810 9514 ft 278 kts 310°
2026-05-07 15:13 54.50744 -126.95298 9054 ft 277 kts 310°
2026-05-07 15:13 54.52011 -126.97788 8595 ft 277 kts 310°
2026-05-07 15:13 54.53293 -127.00302 8134 ft 276 kts 310°
2026-05-07 15:14 54.54531 -127.02733 7683 ft 266 kts 310°
2026-05-07 15:14 54.55720 -127.05070 7255 ft 255 kts 310°
2026-05-07 15:14 54.56873 -127.07333 6839 ft 246 kts 310°
2026-05-07 15:14 54.57999 -127.09495 6435 ft 240 kts 314°
2026-05-07 15:15 54.59326 -127.11184 6048 ft 234 kts 330°
2026-05-07 15:15 54.60830 -127.12138 5673 ft 228 kts 346°
2026-05-07 15:15 54.62361 -127.12595 5378 ft 220 kts 349°
2026-05-07 15:15 54.63876 -127.13019 5094 ft 220 kts 349°
2026-05-07 15:16 54.65393 -127.13445 4801 ft 220 kts 349°
2026-05-07 15:16 54.66891 -127.13870 4510 ft 218 kts 349°
2026-05-07 15:16 54.68382 -127.14294 4219 ft 216 kts 350°
2026-05-07 15:16 54.69869 -127.14716 3931 ft 215 kts 350°
2026-05-07 15:17 54.71346 -127.15137 3645 ft 213 kts 350°
2026-05-07 15:17 54.72804 -127.15559 3357 ft 212 kts 350°
2026-05-07 15:17 54.74250 -127.15981 3065 ft 209 kts 350°
2026-05-07 15:17 54.75652 -127.16386 2774 ft 197 kts 350°
2026-05-07 15:18 54.76920 -127.16730 2573 ft 173 kts 350°
2026-05-07 15:18 54.78081 -127.17037 2363 ft 163 kts 351°
2026-05-07 15:18 54.79172 -127.17323 2181 ft 154 kts 351°
2026-05-07 15:18 54.80186 -127.17601 2003 ft 142 kts 349°
2026-05-07 15:19 54.81165 -127.17894 1843 ft 145 kts 351°
2026-05-07 15:19 54.82143 -127.18175 1714 ft 134 kts 351°
2026-05-07 15:19 54.82866 -127.18381 1712 ft 62 kts 350°
2026-05-07 15:19 54.83164 -127.18469 1710 ft 20 kts 351°
2026-05-07 15:20 54.83294 -127.18506 1709 ft 17 kts 351°
2026-05-07 15:20 54.83406 -127.18536 1708 ft 14 kts 351°
2026-05-07 15:20 54.83492 -127.18597 1707 ft 12 kts 319°
2026-05-07 15:20 54.83511 -127.18572 1707 ft 8 kts 157°
2026-05-07 15:21 54.83435 -127.18549 1707 ft 14 kts 172°
2026-05-07 15:21 54.83319 -127.18513 1708 ft 19 kts 171°
2026-05-07 15:21 54.83173 -127.18471 1710 ft 19 kts 171°
2026-05-07 15:21 54.83055 -127.18437 1711 ft 14 kts 170°
2026-05-07 15:22 54.82967 -127.18413 1712 ft 10 kts 171°
2026-05-07 15:22 54.82900 -127.18393 1712 ft 9 kts 170°
2026-05-07 15:22 54.82830 -127.18372 1713 ft 10 kts 171°
2026-05-07 15:22 54.82751 -127.18350 1713 ft 12 kts 171°
2026-05-07 15:23 54.82666 -127.18328 1713 ft 12 kts 171°
2026-05-07 15:23 54.82592 -127.18343 1714 ft 9 kts 211°
2026-05-07 15:23 54.82548 -127.18425 1714 ft 9 kts 231°
2026-05-07 15:23 54.82509 -127.18510 1714 ft 8 kts 231°
2026-05-07 15:24 54.82468 -127.18553 1714 ft 6 kts 167°
2026-05-07 15:24 54.82426 -127.18530 1714 ft 5 kts 163°
2026-05-07 15:24 54.82372 -127.18514 1714 ft 7 kts 184°
2026-05-07 15:24 54.82366 -127.18552 1714 ft 3 kts 294°
2026-05-07 15:25 54.82375 -127.18580 1714 ft 0 kts 303°
2026-05-07 15:25 54.82376 -127.18581 1714 ft 0 kts 303°